AUL2350 UNNT-USSS

Flight info

Callsign AUL2350
Flight time N/A
Altitude 38000
Route OGAMA1K OGAMA A308 ML A300 RUBOR T448 SOPUS P135 BEGMA BEGMA6N
Aircraft A20N/M-SDE2E3FGHIRWXY/LB1

Departure

Time 2026-05-04 13:51
Airport Novosibirsk Tolmachevo Airport (UNNT)

Arrival

Time N/A
Airport Koltsovo Airport (USSS)
Time Latitude Longitude Altitude Speed Heading
2026-05-04 13:31 55.01012 82.66588 375 ft 0 kts 172°
2026-05-04 13:43 55.01017 82.66587 375 ft 2 kts 172°
2026-05-04 13:43 55.01036 82.66582 375 ft 3 kts 172°
2026-05-04 13:44 55.01058 82.66577 375 ft 3 kts 172°
2026-05-04 13:44 55.01080 82.66571 375 ft 3 kts 164°
2026-05-04 13:44 55.01102 82.66561 375 ft 3 kts 173°
2026-05-04 13:44 55.01108 82.66560 375 ft 0 kts 172°
2026-05-04 13:48 55.01095 82.66565 375 ft 4 kts 166°
2026-05-04 13:48 55.01078 82.66603 375 ft 5 kts 93°
2026-05-04 13:48 55.01100 82.66651 375 ft 6 kts 18°
2026-05-04 13:49 55.01151 82.66649 375 ft 9 kts 352°
2026-05-04 13:49 55.01219 82.66632 375 ft 11 kts 352°
2026-05-04 13:49 55.01259 82.66622 375 ft 0 kts 351°
2026-05-04 13:49 55.01262 82.66621 375 ft 2 kts 351°
2026-05-04 13:50 55.01283 82.66615 375 ft 5 kts 351°
2026-05-04 13:50 55.01323 82.66604 375 ft 7 kts 350°
2026-05-04 13:50 55.01371 82.66579 376 ft 7 kts 314°
2026-05-04 13:50 55.01376 82.66534 376 ft 0 kts 263°
2026-05-04 13:51 55.01366 82.66395 376 ft 43 kts 261°
2026-05-04 13:51 55.01274 82.65380 375 ft 122 kts 261°
2026-05-04 13:51 55.01108 82.63607 622 ft 160 kts 261°
2026-05-04 13:51 55.00913 82.61641 1385 ft 171 kts 261°
2026-05-04 13:52 55.00441 82.57041 2783 ft 206 kts 262°
2026-05-04 13:52 55.00233 82.54584 3781 ft 205 kts 263°
2026-05-04 13:52 55.00201 82.52113 4672 ft 206 kts 282°
2026-05-04 13:53 55.00763 82.49823 5494 ft 210 kts 307°
2026-05-04 13:53 55.01827 82.48000 5896 ft 227 kts 318°
2026-05-04 13:53 55.03114 82.46063 6000 ft 258 kts 318°
2026-05-04 13:54 55.05851 82.41949 5995 ft 260 kts 317°
2026-05-04 13:54 55.07195 82.39905 5998 ft 260 kts 317°
2026-05-04 13:54 55.09914 82.35740 6005 ft 260 kts 317°
2026-05-04 13:55 55.11272 82.33653 6001 ft 260 kts 317°
2026-05-04 13:55 55.13984 82.29477 5989 ft 260 kts 317°
2026-05-04 13:55 55.15347 82.27378 5990 ft 262 kts 317°
2026-05-04 13:56 55.16711 82.25272 6001 ft 261 kts 317°
2026-05-04 13:56 55.18074 82.23166 5999 ft 261 kts 317°
2026-05-04 13:56 55.20776 82.18932 6007 ft 262 kts 312°
2026-05-04 13:57 55.21873 82.16389 6216 ft 263 kts 299°
2026-05-04 13:57 55.22638 82.13468 6806 ft 265 kts 292°
2026-05-04 13:58 55.24822 82.04632 7126 ft 263 kts 293°
2026-05-04 13:58 55.26279 81.98744 7127 ft 263 kts 293°
2026-05-04 13:58 55.27002 81.95807 7120 ft 262 kts 293°
2026-05-04 13:59 55.27726 81.92860 7122 ft 263 kts 293°
2026-05-04 13:59 55.28446 81.89918 7121 ft 263 kts 292°
2026-05-04 13:59 55.29878 81.84063 7122 ft 263 kts 292°
2026-05-04 14:00 55.30597 81.81117 7121 ft 262 kts 292°
2026-05-04 14:00 55.32031 81.75228 7125 ft 262 kts 292°
2026-05-04 14:00 55.32747 81.72285 7125 ft 262 kts 292°
2026-05-04 14:01 55.33462 81.69340 7123 ft 263 kts 292°
2026-05-04 14:01 55.34178 81.66387 7122 ft 263 kts 292°
2026-05-04 14:01 55.35607 81.60481 7122 ft 263 kts 292°
2026-05-04 14:02 55.36321 81.57524 7120 ft 262 kts 292°
2026-05-04 14:02 55.37031 81.54578 7175 ft 265 kts 292°
2026-05-04 14:02 55.37752 81.51583 7651 ft 267 kts 292°
2026-05-04 14:02 55.38473 81.48583 8673 ft 266 kts 292°
2026-05-04 14:03 55.39198 81.45569 9618 ft 269 kts 292°
2026-05-04 14:03 55.39934 81.42511 10460 ft 275 kts 292°
2026-05-04 14:03 55.40700 81.39325 10824 ft 298 kts 292°
2026-05-04 14:03 55.41535 81.35847 11141 ft 319 kts 293°
2026-05-04 14:04 55.43286 81.28543 12710 ft 327 kts 293°
2026-05-04 14:04 55.44174 81.24826 13532 ft 331 kts 293°
2026-05-04 14:04 55.45071 81.21067 14297 ft 334 kts 294°
2026-05-04 14:05 55.46840 81.13419 15763 ft 340 kts 289°
2026-05-04 14:05 55.47460 81.09366 16473 ft 344 kts 285°
2026-05-04 14:05 55.48023 81.05237 17130 ft 349 kts 285°
2026-05-04 14:06 55.48600 81.01060 17811 ft 352 kts 285°
2026-05-04 14:06 55.49183 80.96843 18494 ft 356 kts 285°
2026-05-04 14:06 55.49770 80.92596 19097 ft 358 kts 285°
2026-05-04 14:06 55.50360 80.88306 19706 ft 361 kts 285°
2026-05-04 14:07 55.50951 80.83990 20306 ft 364 kts 285°
2026-05-04 14:07 55.51546 80.79636 20897 ft 367 kts 285°
2026-05-04 14:07 55.52145 80.75239 21487 ft 370 kts 285°
2026-05-04 14:07 55.52745 80.70814 22067 ft 373 kts 285°
2026-05-04 14:08 55.53350 80.66349 22632 ft 375 kts 285°
2026-05-04 14:08 55.53957 80.61847 23215 ft 378 kts 285°
2026-05-04 14:08 55.54568 80.57308 23759 ft 381 kts 285°
2026-05-04 14:08 55.55181 80.52737 24249 ft 383 kts 285°
2026-05-04 14:09 55.56403 80.43585 25159 ft 388 kts 285°
2026-05-04 14:09 55.57022 80.38926 25627 ft 390 kts 285°
2026-05-04 14:10 55.58262 80.29542 26519 ft 395 kts 284°
2026-05-04 14:10 55.58886 80.24806 26953 ft 397 kts 284°
2026-05-04 14:10 55.59513 80.20038 27377 ft 399 kts 284°
2026-05-04 14:10 55.60140 80.15251 27783 ft 401 kts 284°
2026-05-04 14:11 55.60768 80.10434 28185 ft 403 kts 284°
2026-05-04 14:11 55.62027 80.00725 28944 ft 407 kts 284°
2026-05-04 14:11 55.62658 79.95834 29304 ft 409 kts 284°
2026-05-04 14:12 55.63291 79.90909 29658 ft 411 kts 284°
2026-05-04 14:12 55.63927 79.85970 30017 ft 412 kts 284°
2026-05-04 14:12 55.65211 79.76026 30633 ft 416 kts 284°
2026-05-04 14:13 55.65848 79.71086 30921 ft 418 kts 284°
2026-05-04 14:13 55.66494 79.66050 31219 ft 420 kts 284°
2026-05-04 14:13 55.67138 79.61011 31591 ft 419 kts 284°
2026-05-04 14:13 55.67778 79.55981 31992 ft 418 kts 284°
2026-05-04 14:14 55.68414 79.50956 32389 ft 417 kts 284°
2026-05-04 14:14 55.69677 79.40940 33143 ft 415 kts 284°
2026-05-04 14:14 55.70303 79.35950 33510 ft 414 kts 284°
2026-05-04 14:15 55.71542 79.26007 34309 ft 408 kts 284°
2026-05-04 14:15 55.72750 79.16245 34927 ft 406 kts 284°
2026-05-04 14:16 55.73956 79.06452 35358 ft 407 kts 284°
2026-05-04 14:16 55.74557 79.01543 35567 ft 407 kts 284°
2026-05-04 14:17 55.75755 78.91698 35965 ft 408 kts 284°
2026-05-04 14:17 55.76344 78.86833 36159 ft 409 kts 284°
2026-05-04 14:17 55.77534 78.76948 36531 ft 410 kts 284°